GW2728 Weather Reports


Display with metric or nautical units.
time (UTC)temp
F
wind
direction
speed
MPH
gust
MPH
rain 1hr
in
rain 24hr
in
rain mn
in
humidity
%
barometer
mb
20260503220040 60 239 6.0 15.0 0.00 0.00 0.00 37 1012.6
20260503214536 61 152 5.0 11.0 0.00 0.00 0.00 37 1012.2
20260503213037 59 253 4.0 10.0 0.00 0.00 0.00 40 1012.6
20260503211540 59 186 7.0 15.0 0.00 0.00 0.00 38 1012.7
20260503210035 60 259 5.0 14.0 0.00 0.00 0.00 37 1012.6
20260503204534 61 194 4.0 13.0 0.00 0.00 0.00 36 1012.5
20260503203040 61 245 6.0 15.0 0.00 0.00 0.00 37 1012.7
20260503201538 61 266 5.0 15.0 0.00 0.00 0.00 35 1012.7
20260503200037 60 151 4.0 14.0 0.00 0.00 0.00 37 1013.0
20260503194542 60 233 6.0 15.0 0.00 0.00 0.00 38 1013.3
20260503193041 60 234 10.0 17.0 0.00 0.00 0.00 37 1013.5
20260503191536 59 207 6.0 15.0 0.00 0.00 0.00 39 1013.9
20260503190042 59 246 7.0 15.0 0.00 0.00 0.00 39 1014.0
20260503184537 60 235 3.0 10.0 0.00 0.00 0.00 40 1014.1
20260503183037 59 272 4.0 12.0 0.00 0.00 0.00 40 1014.3
20260503181538 60 256 4.0 13.0 0.00 0.00 0.00 40 1014.4
20260503180036 59 233 6.0 17.0 0.00 0.00 0.00 40 1014.5
20260503174549 60 217 5.0 13.0 0.00 0.00 0.00 42 1014.7
20260503173040 59 210 5.0 13.0 0.00 0.00 0.00 43 1014.9
20260503171537 57 179 6.0 15.0 0.00 0.00 0.00 43 1015.1
20260503081545 34 153 0.0 0.0 0.00 0.16 0.00 85 1016.2
20260503071542 34 0 0.0 1.0 0.00 0.16 0.00 86 1016.2
20260503054537 35 0 0.0 0.0 0.00 0.16 0.00 84 1016.5
20260503053037 36 0 0.0 0.0 0.00 0.16 0.00 84 1016.5
20260503051535 36 0 0.0 0.0 0.00 0.16 0.00 83 1016.5
20260503050040 37 0 0.0 0.0 0.00 0.16 0.00 81 1016.6
20260503044545 37 0 0.0 0.0 0.00 0.23 0.00 80 1016.7
20260503043037 38 0 0.0 1.0 0.00 0.23 0.00 78 1016.6
20260503041537 39 0 0.0 1.0 0.00 0.23 0.00 76 1016.7
20260503040036 40 265 0.0 0.0 0.00 0.23 0.00 75 1016.8
20260503034557 40 0 0.0 2.0 0.00 0.29 0.23 74 1017.0
20260503033042 40 0 0.0 0.0 0.00 0.29 0.23 75 1016.9
20260503031535 40 0 0.0 0.0 0.00 0.29 0.23 75 1017.0
20260503030042 40 0 0.0 0.0 0.00 0.29 0.23 74 1017.0
20260503024537 40 0 0.0 0.0 0.00 0.29 0.23 73 1017.1
20260503023037 40 0 0.0 0.0 0.00 0.29 0.23 72 1017.3
20260503021539 40 0 0.0 0.0 0.00 0.29 0.23 72 1017.3
20260503020038 40 0 0.0 0.0 0.00 0.29 0.23 70 1017.3
20260503014541 40 0 0.0 0.0 0.00 0.29 0.23 70 1017.2
20260503013037 41 0 0.0 0.0 0.00 0.29 0.23 69 1017.2
20260503011537 41 0 0.0 0.0 0.00 0.29 0.23 68 1017.2
20260503010037 41 0 0.0 0.0 0.00 0.29 0.23 66 1017.2
20260503004604 41 0 0.0 0.0 0.00 0.29 0.23 64 1017.2
20260503003049 42 0 0.0 0.0 0.00 0.29 0.23 62 1017.1
20260503001556 42 0 0.0 0.0 0.00 0.29 0.23 60 1017.1
20260503000046 42 0 0.0 2.0 0.00 0.29 0.23 57 1016.9
20260502234543 42 347 1.0 4.0 0.00 0.29 0.23 56 1016.8
20260502233037 43 0 0.0 2.0 0.00 0.29 0.23 57 1016.8
20260502231535 43 310 0.0 5.0 0.00 0.29 0.23 55 1016.8
20260502230039 43 229 1.0 6.0 0.00 0.29 0.23 57 1017.1
20260502224537 43 356 2.0 7.0 0.00 0.29 0.23 56 1017.0
20260502223037 43 349 4.0 10.0 0.00 0.29 0.23 55 1017.1
20260502221541 43 299 3.0 10.0 0.00 0.29 0.23 56 1017.1